Location: B?ogocice
(50.2413°N, 20.2361°E)
Time: 00:15:20
(UTC+00:00)

Cosmos 2341 Rocket - Pass Details

Date: 15 June 2024
Orbit: 969 x 1003 km, 82.9° (Epoch: 18 July)

Event Time Altitude Azimuth Distance (km) Brightness Sun altitude
Exits shadow 00:28:15 17° 199° (SSW) 2,253 5.3 -12.6°
Maximum altitude 00:33:12 71° 281° (WNW) 1,025 4.1 -12.3°
Drops below altitude 10° 00:39:26 10° 6° (N) 2,729 7.6 -11.8°
Sets 00:41:59 0° 9° (N) 3,684 8.5 -11.6°
